Simultaneous Nadir Overpasses (SNOs) Predictions

Prediction of SNOs between AQUA and NOAA-19 Satellite Orbit:

Table of predicted SNOs for the next 14.0 days since TLE Epoch: 6/10/2016
Index Date (AQUA) Time (AQUA) Lat,Lon (AQUA) SZA (AQUA ) Date (NOAA-19) Time (NOAA-19) Lat,Lon (NOAA-19) SZA (NOAA-19 ) Distance(km) Time Diff (sec)
1 06/11/2016 01:08:21 -80.86, -56.16 120.11 06/11/2016 01:07:14 -80.85, -56.28 120.06 2.25 67
2 06/11/2016 01:57:47 80.83, 111.85 59.84 06/11/2016 01:58:16 80.83, 111.68 59.85 3.13 29
3 06/13/2016 06:42:04 80.84, 40.58 59.75 06/13/2016 06:41:20 80.84, 40.60 59.77 0.34 44
4 06/13/2016 07:31:29 -80.82,-151.43 120.31 06/13/2016 07:32:16 -80.83,-151.55 120.31 2.30 47
5 06/15/2016 12:15:46 -80.83, 137.27 120.36 06/15/2016 12:15:20 -80.84, 137.20 120.33 1.67 26
6 06/15/2016 13:05:13 80.84, -55.10 59.64 06/15/2016 13:06:24 80.83, -55.27 59.63 3.01 71
7 06/17/2016 17:49:29 80.83,-126.11 59.58 06/17/2016 17:49:27 80.84,-126.05 59.58 1.22 2
8 06/19/2016 22:33:56 81.11, 158.95 60.19 06/19/2016 22:32:42 80.95, 158.70 60.14 19.05 74
9 06/19/2016 23:23:12 -80.85, -29.80 120.40 06/19/2016 23:23:27 -80.84, -29.77 120.41 1.06 15
10 06/22/2016 04:07:28 -80.85,-100.88 120.38 06/22/2016 04:06:30 -80.85,-100.71 120.37 2.93 58
11 06/22/2016 04:56:54 80.83, 67.03 59.58 06/22/2016 04:57:34 80.83, 67.16 59.55 2.31 40
12 06/24/2016 09:41:11 80.86, -4.45 59.70 06/24/2016 09:40:39 80.86, -4.46 59.71 0.58 32




NCC Satellite Simultaneous Nadir Overpasses (SNOs) Prediction Service
